When you browse on this site, cookies collect data to enhance your experience and personalize the content and advertising you see.
Visit our Privacy Policy to learn more. By continuing to use the site, you agree to this use of cookies and data.
  • In Czech Republic
  • List of Countries
  • For 7 days
  • Water Temperature
  • Satellite Maps
  • Weather Map
  • Weather Widgets
  • user-avatar
    Login

    Hourly Weather Melbourne

    Today, 17 November, Saturday

    Time Temperature Precipitation Wind Pressure Humidity
    00:00 +9°C° 0 mm 2 mps 765 mmHg 83%
    01:00 +9°C° 0 mm 2 mps 765 mmHg 85%
    02:00 +8°C° 0 mm 2 mps 765 mmHg 86%
    03:00 +8°C° 0 mm 2 mps 765 mmHg 87%
    04:00 +8°C° 0 mm 2 mps 765 mmHg 87%
    05:00 +9°C° 0 mm 3 mps 765 mmHg 82%
    06:00 +11°C° 0 mm 3 mps 765 mmHg 77%
    07:00 +12°C° 0 mm 3 mps 766 mmHg 71%
    08:00 +14°C° 0 mm 4 mps 766 mmHg 63%
    09:00 +17°C° 0 mm 4 mps 766 mmHg 55%
    10:00 +19°C° 0 mm 4 mps 766 mmHg 47%
    11:00 +20°C° 0 mm 5 mps 765 mmHg 44%
    12:00 +21°C° 0 mm 5 mps 765 mmHg 42%
    13:00 +21°C° 0 mm 5 mps 765 mmHg 39%
    14:00 +21°C° 0 mm 5 mps 765 mmHg 40%
    15:00 +21°C° 0 mm 5 mps 765 mmHg 41%
    16:00 +21°C° 0 mm 5 mps 764 mmHg 43%
    17:00 +19°C° 0 mm 5 mps 765 mmHg 49%
    18:00 +18°C° 0 mm 4 mps 765 mmHg 56%
    19:00 +15°C° 0 mm 4 mps 765 mmHg 63%
    20:00 +14°C° 0 mm 4 mps 765 mmHg 70%
    21:00 +13°C° 0 mm 3 mps 766 mmHg 77%
    22:00 +12°C° 0 mm 3 mps 766 mmHg 84%
    23:00 +11°C° 0 mm 3 mps 766 mmHg 87%

    Tomorrow, 18 November, Sunday

    Time Temperature Precipitation Wind Pressure Humidity
    00:00 +12°C° 0 mm 2 mps 766 mmHg 91%
    01:00 +10°C° 0 mm 2 mps 766 mmHg 94%
    02:00 +10°C° 0 mm 2 mps 765 mmHg 95%
    03:00 +10°C° 0 mm 2 mps 765 mmHg 95%
    04:00 +10°C° 0 mm 1 mps 765 mmHg 95%
    05:00 +12°C° 0 mm 1 mps 765 mmHg 87%
    06:00 +14°C° 0 mm 1 mps 765 mmHg 80%
    07:00 +15°C° 0 mm 1 mps 765 mmHg 72%
    08:00 +19°C° 0 mm 1 mps 765 mmHg 64%
    09:00 +22°C° 0 mm 1 mps 765 mmHg 55%
    10:00 +24°C° 0 mm 2 mps 765 mmHg 47%
    11:00 +26°C° 0 mm 2 mps 764 mmHg 43%
    12:00 +27°C° 0 mm 2 mps 764 mmHg 40%
    13:00 +28°C° 0 mm 2 mps 763 mmHg 37%
    14:00 +28°C° 0 mm 2 mps 763 mmHg 37%
    15:00 +28°C° 0 mm 2 mps 762 mmHg 37%
    16:00 +28°C° 0 mm 3 mps 762 mmHg 37%
    17:00 +26°C° 0 mm 3 mps 762 mmHg 43%
    18:00 +24°C° 0 mm 3 mps 762 mmHg 49%
    19:00 +21°C° 0 mm 3 mps 762 mmHg 55%
    20:00 +20°C° 0 mm 3 mps 762 mmHg 58%
    21:00 +19°C° 0 mm 3 mps 762 mmHg 61%
    22:00 +18°C° 0 mm 3 mps 762 mmHg 64%
    23:00 +17°C° 0 mm 2 mps 762 mmHg 66%

    Day after tomorrow, 19 November, Monday

    Time Temperature Precipitation Wind Pressure Humidity
    00:00 +17°C° 0 mm 2 mps 762 mmHg 67%
    01:00 +16°C° 0 mm 2 mps 762 mmHg 69%
    02:00 +16°C° 0 mm 2 mps 762 mmHg 68%
    03:00 +16°C° 0 mm 3 mps 761 mmHg 67%
    04:00 +16°C° 0 mm 3 mps 761 mmHg 66%
    05:00 +17°C° 0 mm 4 mps 761 mmHg 64%
    06:00 +18°C° 0 mm 4 mps 761 mmHg 61%
    07:00 +19°C° 0 mm 5 mps 761 mmHg 59%
    08:00 +21°C° 0 mm 5 mps 761 mmHg 53%
    09:00 +23°C° 0 mm 5 mps 761 mmHg 48%
    10:00 +26°C° 0 mm 5 mps 761 mmHg 42%
    11:00 +28°C° 0 mm 5 mps 760 mmHg 40%
    12:00 +29°C° 0 mm 6 mps 760 mmHg 38%
    13:00 +30°C° 0 mm 6 mps 759 mmHg 35%
    14:00 +30°C° 0 mm 5 mps 758 mmHg 36%
    15:00 +30°C° 0 mm 5 mps 757 mmHg 36%
    16:00 +30°C° 0 mm 5 mps 757 mmHg 36%
    17:00 +28°C° 0 mm 4 mps 757 mmHg 41%
    18:00 +27°C° 0 mm 4 mps 757 mmHg 46%
    19:00 +25°C° 0 mm 3 mps 756 mmHg 51%
    20:00 +25°C° 0 mm 4 mps 756 mmHg 49%
    21:00 +25°C° 0 mm 4 mps 756 mmHg 47%
    22:00 +25°C° 0 mm 4 mps 756 mmHg 45%
    23:00 +25°C° 0 mm 4 mps 756 mmHg 43%

    20 November, Tuesday

    Time Temperature Precipitation Wind Pressure Humidity
    00:00 +25°C° 0 mm 5 mps 755 mmHg 42%
    01:00 +25°C° 0 mm 5 mps 754 mmHg 40%
    02:00 +24°C° 0 mm 6 mps 754 mmHg 39%
    03:00 +24°C° 0 mm 6 mps 754 mmHg 39%
    04:00 +24°C° 0 mm 6 mps 753 mmHg 38%
    05:00 +24°C° 0.1 mm 6 mps 753 mmHg 40%
    06:00 +23°C° 0.1 mm 7 mps 754 mmHg 42%
    07:00 +23°C° 0.1 mm 7 mps 754 mmHg 44%
    08:00 +24°C° 0 mm 7 mps 754 mmHg 44%
    09:00 +26°C° 0 mm 6 mps 754 mmHg 43%
    10:00 +27°C° 0 mm 6 mps 754 mmHg 42%
    11:00 +27°C° 0.1 mm 6 mps 753 mmHg 46%
    12:00 +27°C° 0.1 mm 6 mps 753 mmHg 50%
    13:00 +27°C° 0.1 mm 6 mps 752 mmHg 55%
    14:00 +26°C° 1.2 mm 5 mps 751 mmHg 60%
    15:00 +25°C° 1.2 mm 5 mps 750 mmHg 66%
    16:00 +23°C° 1.2 mm 4 mps 749 mmHg 72%
    17:00 +21°C° 6.6 mm 4 mps 749 mmHg 80%
    18:00 +20°C° 6.6 mm 3 mps 749 mmHg 88%
    19:00 +18°C° 6.6 mm 3 mps 749 mmHg 97%
    20:00 +18°C° 6.2 mm 3 mps 748 mmHg 97%
    21:00 +18°C° 6.2 mm 4 mps 748 mmHg 97%
    22:00 +17°C° 6.2 mm 4 mps 748 mmHg 97%
    23:00 +17°C° 0.9 mm 4 mps 748 mmHg 97%

    21 November, Wednesday

    Time Temperature Precipitation Wind Pressure Humidity
    00:00 +16°C° 0.9 mm 3 mps 747 mmHg 97%
    01:00 +16°C° 0.9 mm 3 mps 747 mmHg 96%
    02:00 +14°C° 0.1 mm 3 mps 747 mmHg 96%
    03:00 +14°C° 0.1 mm 3 mps 747 mmHg 96%
    04:00 +14°C° 0.1 mm 3 mps 747 mmHg 95%
    05:00 +13°C° 0.1 mm 3 mps 747 mmHg 94%
    06:00 +13°C° 0.1 mm 3 mps 747 mmHg 93%
    07:00 +14°C° 0.1 mm 2 mps 747 mmHg 92%
    08:00 +14°C° 0.1 mm 3 mps 747 mmHg 86%
    09:00 +16°C° 0.1 mm 3 mps 748 mmHg 79%
    10:00 +17°C° 0.1 mm 3 mps 748 mmHg 72%
    11:00 +17°C° 0.2 mm 3 mps 747 mmHg 71%
    12:00 +17°C° 0.2 mm 3 mps 747 mmHg 69%
    13:00 +17°C° 0.2 mm 4 mps 746 mmHg 68%
    14:00 +15°C° 0.8 mm 4 mps 746 mmHg 74%
    15:00 +14°C° 0.8 mm 3 mps 745 mmHg 80%
    16:00 +13°C° 0.8 mm 3 mps 745 mmHg 86%
    17:00 +12°C° 1.2 mm 3 mps 746 mmHg 88%
    18:00 +11°C° 1.2 mm 3 mps 746 mmHg 90%
    19:00 +10°C° 1.2 mm 2 mps 746 mmHg 92%
    20:00 +10°C° 0.4 mm 2 mps 747 mmHg 92%
    21:00 +10°C° 0.4 mm 2 mps 747 mmHg 92%
    22:00 +9°C° 0.4 mm 2 mps 747 mmHg 92%
    23:00 +9°C° 0.2 mm 2 mps 747 mmHg 92%

    22 November, Thursday

    Time Temperature Precipitation Wind Pressure Humidity
    00:00 +9°C° 0.2 mm 2 mps 746 mmHg 93%
    01:00 +8°C° 0.2 mm 2 mps 746 mmHg 93%
    02:00 +8°C° 0.1 mm 3 mps 746 mmHg 93%
    03:00 +8°C° 0.1 mm 3 mps 746 mmHg 93%
    04:00 +8°C° 0.1 mm 3 mps 746 mmHg 93%
    05:00 +7°C° 0 mm 4 mps 746 mmHg 92%
    06:00 +8°C° 0 mm 4 mps 746 mmHg 91%
    07:00 +8°C° 0 mm 5 mps 746 mmHg 90%
    08:00 +9°C° 0.3 mm 5 mps 747 mmHg 86%
    09:00 +12°C° 0.3 mm 5 mps 747 mmHg 82%
    10:00 +13°C° 0.3 mm 5 mps 747 mmHg 77%
    11:00 +13°C° 0.7 mm 6 mps 747 mmHg 78%
    12:00 +13°C° 0.7 mm 6 mps 747 mmHg 79%
    13:00 +13°C° 0.7 mm 6 mps 747 mmHg 80%
    14:00 +13°C° 0.5 mm 6 mps 747 mmHg 76%
    15:00 +14°C° 0.5 mm 6 mps 747 mmHg 72%
    16:00 +14°C° 0.5 mm 7 mps 747 mmHg 69%
    17:00 +12°C° 0.2 mm 7 mps 747 mmHg 72%
    18:00 +11°C° 0.2 mm 6 mps 747 mmHg 76%
    19:00 +10°C° 0.2 mm 6 mps 747 mmHg 79%
    20:00 +10°C° 0.3 mm 7 mps 748 mmHg 80%
    21:00 +10°C° 0.3 mm 8 mps 748 mmHg 80%
    22:00 +10°C° 0.3 mm 8 mps 748 mmHg 81%
    23:00 +10°C° 1 mm 8 mps 748 mmHg 83%
    Show more